Flag for Western Sahara Weather past 2 weeks in El Aaiún, Western Sahara

Now
57 °F

Passing clouds.


Feels Like: 55 °F
Forecast: N/A
Wind: 12 mph from Northeast

Location: Laayoune/Hassan Isl

Current Time: Jan 25, 2015 at 11:19:38 PM

Latest Report: Jan 25, 2015 at 11:00 PM


Visibility: 5 mi

Pressure: 30.18 "Hg

Humidity: 88%

Dew point: 54 °F

Location of El AaiúnLocation

Historic Weather in El Aaiún — Graph

°F

El Aaiún temperature yesterday

Maximum temperature yesterday: 68 °F (at 2:00 PM)
Minimum temperature yesterday: 55 °F (at 12:00 AM)
Average temperature yesterday: 61 °F

Past Weeks' High & Low Weather Summary

 TemperatureHumidityPressure
High75 °F (Jan 12, 2:00 PM)100% (Jan 14, 8:00 AM)30.33 "Hg (Jan 14, 8:00 AM)
Low52 °F (Jan 14, 3:00 AM)13% (Jan 12, 2:00 PM)30.04 "Hg (Jan 20, 6:00 AM)
Average61 °F62%30.19 "Hg
* Reported Jan 10 10:00 PM — Jan 25 10:00 PM, El Aaiún, Weather by CustomWeather, © 2014

Note: Actual official high and low records may vary slightly from our data, if they occured in-between our weather recording intervals... More about our weather records

Advertising

El Aaiún weather history for previous 24 hours

 ConditionsComfort  
Time TempWeatherWind HumidityBarometerVisibility
10:00 PM
Jan 25
59 °FPassing clouds.13 mph82%30.18 "Hg5 mi
9:00 PM59 °FPassing clouds.13 mph82%30.18 "Hg5 mi
8:00 PM61 °FPassing clouds.13 mph77%30.15 "HgN/A
7:00 PM61 °FPassing clouds.12 mph77%30.15 "HgN/A
6:00 PM64 °FScattered clouds.16 mph68%30.12 "HgN/A
5:00 PM68 °FScattered clouds.14 mph53%30.09 "HgN/A
2:00 PM70 °FScattered clouds.10 mph50%30.12 "HgN/A
1:00 PM66 °FPartly sunny.10 mph56%30.15 "HgN/A
12:00 PM64 °FPartly sunny.13 mph64%30.18 "HgN/A
11:00 AM63 °FPartly sunny.16 mph68%30.18 "HgN/A
10:00 AM61 °FPassing clouds.10 mph77%30.18 "HgN/A
9:00 AM57 °FPassing clouds.9 mph88%30.18 "Hg5 mi
8:00 AM55 °FPassing clouds.6 mph88%30.15 "Hg5 mi
7:00 AM57 °FPassing clouds.13 mph82%30.15 "Hg5 mi
6:00 AM57 °FPassing clouds.15 mph82%30.15 "Hg5 mi
5:00 AM59 °FPassing clouds.15 mph77%30.15 "Hg5 mi
4:00 AM55 °FPassing clouds.8 mph88%30.15 "Hg5 mi
2:00 AM55 °FPassing clouds.10 mph88%30.15 "Hg5 mi
1:00 AM57 °FPassing clouds.9 mph82%30.15 "Hg5 mi
12:00 AM57 °FPassing clouds.10 mph77%30.15 "Hg5 mi
11:00 PM
Jan 24
59 °FPassing clouds.12 mph72%30.15 "Hg5 mi
Weather by CustomWeather, © 2014

See weather overviewHow to use our weather pages